Flag for U.S.A. Weather past 2 weeks in Fairbanks, Alaska, U.S.A.

Now
30 °F

Partly sunny.


Feels Like: 30 °F
Forecast: 18 / 31 °F
Wind: No wind

Location: Wainwright U. S. Army Airfield

Current Time: Mar 4, 2015 at 6:45:46 PM

Latest Report: Mar 4, 2015 at 5:55 PM


Visibility: 25 mi

Pressure: 29.79 "Hg

Humidity: 80%

Dew point: 25 °F

Location of FairbanksLocation

Historic Weather in Fairbanks — Graph

°F

Fairbanks temperature yesterday

Maximum temperature yesterday: 25 °F (at 9:56 PM)
Minimum temperature yesterday: 16 °F (at 6:55 AM)
Average temperature yesterday: 21 °F

Past Weeks' High & Low Weather Summary

 TemperatureHumidityPressure
High36 °F (Feb 22, 2:56 PM)100% (Feb 23, 7:55 AM)30.72 "Hg (Feb 23, 7:55 AM)
Low-9 °F (Mar 2, 6:55 AM)31% (Mar 2, 3:55 PM)29.75 "Hg (Feb 17, 7:55 PM)
Average19 °F81%30.16 "Hg
* Reported Feb 17 4:55 PM — Mar 4 4:55 PM, Fairbanks, Weather by CustomWeather, © 2015

Note: Actual official high and low records may vary slightly from our data, if they occured in-between our weather recording intervals... More about our weather records

Advertising

Fairbanks weather history for previous 24 hours

 ConditionsComfort  
Time TempWeatherWind HumidityBarometerVisibility
4:55 PM
Wed, Mar 4
30 °FBroken clouds.No wind80%29.81 "Hg25 mi
3:55 PM32 °FBroken clouds.No wind75%29.82 "Hg25 mi
2:55 PM30 °FScattered clouds.No wind69%29.83 "Hg25 mi
1:55 PM28 °FPassing clouds.No wind69%29.86 "Hg25 mi
12:55 PM30 °FPassing clouds.No wind69%29.87 "Hg25 mi
11:55 AM30 °FPassing clouds.No wind69%29.89 "Hg25 mi
10:55 AM30 °FScattered clouds.5 mph69%29.90 "Hg25 mi
9:55 AM28 °FBroken clouds.6 mph74%29.90 "Hg25 mi
8:55 AM27 °FBroken clouds.6 mph80%29.91 "Hg25 mi
7:55 AM25 °FBroken clouds.6 mph86%29.91 "Hg13 mi
6:55 AM25 °FPartly cloudy.5 mph86%29.92 "Hg7 mi
5:56 AM27 °FMostly cloudy.3 mph81%29.93 "Hg10 mi
4:56 AM26 °FMostly cloudy.7 mph88%29.93 "Hg10 mi
3:56 AM26 °FOvercast.3 mph88%29.94 "Hg10 mi
2:56 AM26 °FOvercast.3 mph88%29.95 "Hg10 mi
1:56 AM25 °FMostly cloudy.3 mph88%29.95 "Hg10 mi
12:56 AM26 °FOvercast.No wind88%29.94 "Hg10 mi
11:56 PM
Tue, Mar 3
25 °FOvercast.No wind88%29.94 "Hg10 mi
10:56 PM25 °FOvercast.No wind88%29.93 "Hg10 mi
9:56 PM25 °FLight snow. Ice fog.3 mph88%29.93 "Hg6 mi
8:55 PM25 °FLight snow. Ice fog.No wind86%29.93 "Hg4 mi
7:55 PM25 °FLight snow. Ice fog.No wind86%29.95 "Hg4 mi
6:55 PM25 °FLight snow. Ice fog.No wind80%29.95 "Hg2 mi
Weather by CustomWeather, © 2015

See weather overviewHow to use our weather pages